Date,TemperatureHighF,TemperatureAvgF,TemperatureLowF,DewpointHighF,DewpointAvgF,DewpointLowF,HumidityHigh,HumidityAvg,HumidityLow,PressureMaxIn,PressureMinIn,WindSpeedMaxMPH,WindSpeedAvgMPH,GustSpeedMaxMPH,PrecipitationSumIn
2013-4-1,51.7,37.2,24.1,26.4,20.4,13.0,87,53,29,29.98,29.76,17,3,18,0.00
2013-4-2,39.7,27.7,21.9,26.9,23.1,19.2,92,84,59,30.18,29.95,18,2,19,0.00
2013-4-3,46.5,33.0,23.6,32.1,24.3,16.3,93,73,35,30.24,30.15,15,1,16,0.28
2013-4-4,57.6,43.6,30.4,23.2,17.7,14.0,55,36,21,30.24,29.99,12,2,18,0.00
2013-4-5,57.3,46.1,37.1,29.1,20.5,14.6,72,38,22,29.98,29.61,24,6,27,0.00
2013-4-6,53.7,42.8,34.0,29.1,18.9,7.3,73,42,18,29.82,29.70,21,4,25,0.00
2013-4-7,50.7,41.4,33.8,25.1,20.9,17.8,63,45,31,29.78,29.63,21,5,26,0.00
2013-4-8,55.0,43.6,36.1,28.4,20.7,15.9,58,41,25,29.67,29.25,28,4,34,0.00
2013-4-9,41.8,18.7,7.0,29.0,13.8,3.4,88,81,49,30.08,29.31,19,3,27,0.02
2013-4-10,31.9,16.3,3.0,22.6,11.3,-1.0,89,81,62,30.31,30.08,9,2,13,0.02
2013-4-11,44.8,32.0,18.9,24.8,17.1,8.5,86,55,35,30.15,29.90,19,5,24,0.00
2013-4-12,46.4,34.6,23.4,27.0,22.0,16.4,90,64,31,29.99,29.87,17,3,20,0.00
2013-4-13,52.7,41.1,26.9,27.4,18.8,14.0,87,44,25,29.98,29.39,22,6,30,0.00
2013-4-14,40.1,34.4,28.2,30.8,21.3,9.9,92,62,38,29.68,29.34,29,5,37,0.23
2013-4-15,52.2,33.3,21.2,24.8,15.6,5.2,81,50,30,29.84,29.57,29,6,36,0.00
2013-4-16,31.6,24.0,16.0,22.2,18.5,13.3,91,80,63,29.96,29.77,20,7,27,0.00
2013-4-17,23.1,19.3,9.4,20.9,16.8,6.1,92,90,86,30.15,29.83,18,5,19,0.00
2013-4-18,26.5,17.0,5.2,13.8,6.5,0.5,88,66,36,30.48,30.15,16,3,21,0.14
2013-4-19,41.1,29.4,15.3,16.6,10.0,0.3,57,44,33,30.48,30.10,16,5,24,0.02
2013-4-20,42.9,33.5,29.3,26.7,19.8,13.9,83,58,41,30.10,29.89,20,4,21,0.00
2013-4-21,50.5,38.9,29.2,25.2,18.6,10.2,79,47,21,30.12,29.98,19,3,22,0.00
2013-4-22,54.9,37.8,16.0,27.2,21.0,13.0,89,55,24,29.98,29.68,22,6,25,0.00
2013-4-23,23.6,16.6,12.2,20.3,13.2,9.1,89,86,81,30.43,29.96,11,2,13,0.06
2013-4-24,44.7,33.6,13.8,17.8,12.7,6.0,86,44,24,30.44,30.30,15,4,21,0.01
2013-4-25,55.1,41.6,26.9,25.5,19.2,11.9,64,42,27,30.32,29.88,21,4,24,0.00
2013-4-26,51.3,42.7,34.7,28.1,21.9,16.4,67,45,28,30.20,29.91,17,3,22,0.00
2013-4-27,59.8,46.7,34.7,25.8,18.7,9.9,68,37,17,30.19,30.00,13,3,21,0.00
2013-4-28,66.1,52.6,41.6,22.8,17.7,12.8,33,26,18,30.00,29.70,17,3,18,0.00
2013-4-29,64.9,54.7,44.7,25.7,21.2,17.8,40,28,19,29.73,29.48,23,4,29,0.00
2013-4-30,65.7,55.1,40.0,31.4,22.6,16.3,70,30,17,29.52,29.38,21,5,26,0.00